Showing default

STPSAT-6, 49817

Orbit data source: Space-Track

STPSAT-6, 49817 is a payload satellite owned by USAF STP (US) in GEO that was launched on Tue, 07 Dec 2021 UTC via an ATLAS V 551 launch vehicle from the Air Force Eastern Test Range (AFETR). Payload-class satellites include a variety of spacecraft equipped with specific instruments for various scientific and technological missions. These include communications satellites like Starlink; space stations such as the ISS; scientific satellites like the Hubble; Earth observation satellites from companies like Planet Labs, Umbra, and HawkEye 360; GPS; miniature CubeSats for education and research; and military/defense satellites.

Loading next visibility...
Identifier
49817, 2021-118A
Orbit
GEO
Country
Flag of USUS
Related business
Manufacturer
NGAS
Mission
Operational Defense Technology
Bus & Motor
A-500, Unknown motor
Mass
~1,000 kg wet, ~1,000 kg dry
Launch date (UTC)
2021-12-07 (5 years ago)
Launch vehicle
ATLAS V 551
Launch site
Air Force Eastern Test Range (AFETR)
Object type
Payload
Rocket body
Debris
Shape & HBR
Box + 1 Pan, 1.0 m
Radar Cross Section
2.500 m², Large (>1 m²)

Expand to show TLE details & history
Last TLE update: 2 days ago

TLE from 2 days ago
0 STPSAT-6
1 49817U 21118A   26171.44628338 -.00000050  00000-0  00000+0 0  9992
2 49817   0.3304  85.3568 0001185 256.6364 335.6712  1.00269666 16609
Epoch: 2026-06-20T10:42Z
TLE epoch observation values (Epoch: 2026-06-20T10:42:38.884Z)
Latitude
-0.27469°
Longitude
-111.65171°
Altitude
35,782.173 km
Speed
3.075 km/s
True Right ascension
21h 10m 41s
True Declination
0° 16' 28"
Sunlit
Object was in daylight at epoch
Visualization orbit readout
Latitude
Unknown
Longitude
Unknown
Altitude
Unknown
Speed
Unknown
Apparent Right ascension
Unknown
Apparent Declination
Unknown
Sunlit
N/A
Visualization observer readout
Local Sidereal Time
21:42:55
Azimuth
Unknown
Elevation
Unknown
Doppler factor
Unknown
Orbital elements
Apogee altitude
35,793.256 km
Perigee altitude
35,783.263 km
Semi-major axis
42,166.396 km
Eccentricity
0.00012
Inclination
0.3304°
RAAN
85.3568°
Arg. of periapsis
256.6364°
True anomaly
335.66561°
Mean anomaly
335.6712°
Eccentric anomaly
335.6684°
Mean motion
0.25066 °/min
Orbital period
1,436.18 mins
BSTAR
0
Loading maneuver chart data...
Computing Atmospheric mass density...
Loading historical data...
Loading historical data...
Loading historical data...
Loading historical data...
Loading historical data...
Loading historical data...
Loading historical data...
Other satellites on launch #118 in the year 2021 (2021-12-07 UTC)

Documentation

Showing up to 5 results
|